Waarnemingen

Advertentie
Mijn weer
Biarritz, Frankrijk (7602): temperatuur & dauwpunt: 15.01.2017 11:00:00 - 21.01.2017 11:00:00 (CET)Biarritz, Frankrijk (7602): temperatuur 5cm: 15.01.2017 11:00:00 - 21.01.2017 11:00:00 (CET)Biarritz, Frankrijk (7602): temperatuur -20cm & temperatuur -100cm: 15.01.2017 11:00:00 - 21.01.2017 11:00:00 (CET)Biarritz, Frankrijk (7602): windsnelheid & windstoten: 15.01.2017 11:00:00 - 21.01.2017 11:00:00 (CET)Biarritz, Frankrijk (7602): windrichting: 15.01.2017 11:00:00 - 21.01.2017 11:00:00 (CET)Biarritz, Frankrijk (7602): luchtdruk: 15.01.2017 11:00:00 - 21.01.2017 11:00:00 (CET)Biarritz, Frankrijk (7602): zicht: 15.01.2017 11:00:00 - 21.01.2017 11:00:00 (CET)Biarritz, Frankrijk (7602): Zonneschijnduur: 15.01.2017 11:00:00 - 21.01.2017 11:00:00 (CET)Biarritz, Frankrijk (7602): neerslag: 15.01.2017 11:00:00 - 21.01.2017 11:00:00 (CET)
Datum & Tijd tt [°C] td [°C] tt 5cm [°C] tt -20cm [°C] tt -100cm [°C] ff [km/u] ff [kn] fx [km/u] fx [kn] dd ppp [hPa] vv [km] sd [min] rr [mm]
21.01.2017 11:00:00 5,5 -0,1 5,1 3,8 8,9 0 0 10 5 N 1022,6 14 60 0,2
21.01.2017 10:00:00 1,6 -0,8 -2,5 3,9 8,9 10 5 13 7 ZZO 1022,7 10 60 0,0
21.01.2017 09:00:00 -3,0 -3,8 -4,7 3,9 8,9 8 4 10 5 O 1022,5 6 4 0,0
21.01.2017 08:00:00 -2,5 -3,2 -4,0 4,0 8,9 8 4 16 9 NO 1022,4 3,9 0 0,0
21.01.2017 07:00:00 -2,1 -2,9 -4,4 4,1 9,0 12 7 15 8 ZZO 1022,0 11 0 0,0
21.01.2017 06:00:00 -2,8 -3,8 -4,2 4,1 9,0 6 4 13 7 ZZO 1022,3 6 0 0,0
21.01.2017 05:00:00 -2,6 -3,4 -4,0 4,2 9,0 8 4 10 5 ZZO 1022,8 8 0 0,0
21.01.2017 04:00:00 -2,7 -3,5 -4,0 4,3 9,0 5 3 9 5 OZO 1023,2 3,6 0 0,0
21.01.2017 03:00:00 -1,8 -2,8 -4,1 4,4 9,0 3 2 10 6 O 1023,4 5 0 0,0
21.01.2017 02:00:00 -0,8 -2,4 -3,4 4,4 9,0 6 3 10 6 OZO 1023,3 3,0 0 0,0
21.01.2017 01:00:00 -0,5 -2,2 -3,5 4,5 9,0 6 3 8 5 Z 1023,4 6 0 0,0
21.01.2017 00:00:00 -0,5 -2,1 -3,0 4,5 9,0 4 2 9 5 Z 1023,8 4,5 0 0,0
20.01.2017 23:00:00 0,5 -2,6 -3,1 4,6 9,0 5 3 6 4 O 1024,0 8 0 0,0
20.01.2017 22:00:00 0,8 -1,8 -2,2 4,6 9,0 4 2 11 6 ZO 1024,2 7 0 0,0
20.01.2017 21:00:00 0,7 -2,0 -1,7 4,7 9,1 9 5 10 6 ONO 1024,0 8 0 0,0
20.01.2017 20:00:00 1,4 -1,8 -1,0 4,7 9,1 6 3 12 7 ZZO 1024,3 8 0 0,0
20.01.2017 19:00:00 2,2 -1,6 0,7 4,7 9,1 10 6 18 10 O 1023,8 9 0 0,0
20.01.2017 18:00:00 3,1 -1,7 1,8 4,7 9,1 9 5 13 7 O 1023,6 12 2 0,0
20.01.2017 17:00:00 4,5 -1,5 4,8 4,5 9,1 7 4 15 8 O 1023,3 14 19 0,0
20.01.2017 16:00:00 5,3 -1,2 7,1 4,4 9,1 10 6 18 10 O 1023,3 13 39 0,0
20.01.2017 15:00:00 5,1 -2,3 8,9 4,1 9,1 8 4 16 9 OZO 1023,6 13 60 0,0
20.01.2017 14:00:00 4,3 -2,8 8,2 4,0 9,2 8 4 18 10 O 1024,1 11 60 0,0
20.01.2017 13:00:00 3,9 -2,5 6,1 4,0 9,2 10 6 18 10 O 1024,9 12 60 0,0
20.01.2017 12:00:00 1,7 -2,3 2,9 4,0 9,2 8 4 16 8 O 1026,1 8 60 0,0
20.01.2017 11:00:00 -0,8 -3,2 0,9 4,1 9,2 10 6 16 8 O 1026,6 7 44 0,0
20.01.2017 10:00:00 -1,9 -3,2 -3,8 4,1 9,2 9 5 12 7 O 1026,3 4,5 56 0,0
20.01.2017 09:00:00 -3,6 -4,7 -5,6 4,2 9,2 8 4 11 6 ONO 1025,9 5 1 0,0
20.01.2017 08:00:00 -4,1 -5,2 -5,6 4,3 9,3 5 3 9 5 O 1025,9 6 0 0,0
20.01.2017 07:00:00 -4,2 -5,3 -5,4 4,4 9,3 7 4 11 6 O 1025,6 6 0 0,0
20.01.2017 06:00:00 -3,9 -4,9 -5,4 4,5 9,3 6 3 12 6 O 1025,7 5 0 0,0
20.01.2017 05:00:00 -4,0 -5,3 -5,2 4,6 9,3 9 5 12 6 O 1026,2 6 0 0,0
20.01.2017 04:00:00 -3,7 -5,0 -4,2 4,7 9,3 8 4 13 7 O 1026,4 6 0 0,0
20.01.2017 03:00:00 -2,8 -4,2 -4,1 4,8 9,3 8 5 13 7 ONO 1026,5 6 0 0,0
20.01.2017 02:00:00 -2,7 -4,4 -3,7 4,9 9,4 8 4 11 6 ONO 1026,5 7 0 0,0
20.01.2017 01:00:00 -2,4 -3,8 -4,0 5,0 9,4 8 4 14 8 ONO 1026,5 7 0 0,0
20.01.2017 00:00:00 -2,5 -4,7 -3,6 5,1 9,4 11 6 18 10 ONO 1027,1 7 0 0,0
19.01.2017 23:00:00 -1,4 -3,8 -3,3 5,2 9,4 9 5 14 8 ONO 1027,2 9 0 0,0
19.01.2017 22:00:00 -2,0 -4,8 -3,2 5,2 9,4 10 6 15 8 O 1027,5 10 0 0,0
19.01.2017 21:00:00 -0,3 -4,0 -1,6 5,3 9,4 13 7 18 10 ONO 1027,4 12 0 0,0
19.01.2017 20:00:00 0,5 -4,0 -0,4 5,4 9,4 11 6 18 10 ONO 1027,1 12 0 0,0
19.01.2017 19:00:00 1,5 -3,6 0,0 5,4 9,5 9 5 14 8 NO 1027,1 15 0 0,0
19.01.2017 18:00:00 2,1 -3,4 1,4 5,4 9,4 10 6 19 10 ONO 1026,8 18 36 0,0
19.01.2017 17:00:00 3,5 -3,3 5,3 5,3 9,5 9 5 16 8 O 1026,4 23 57 0,0
19.01.2017 16:00:00 3,6 -3,2 4,9 5,2 9,5 10 5 17 9 ONO 1026,4 21 23 0,2
19.01.2017 15:00:00 3,6 -3,0 5,6 5,1 9,5 11 6 17 9 O 1026,2 13 0 0,0
19.01.2017 14:00:00 3,6 -3,0 5,9 5,0 9,5 5 3 16 8 OZO 1026,4 26 5 0,0
19.01.2017 13:00:00 4,2 -2,9 7,7 4,9 9,6 6 4 16 8 ZZO 1026,9 20 60 0,0
19.01.2017 12:00:00 3,0 -2,9 2,8 4,8 9,6 10 5 16 8 OZO 1027,7 13 45 0,0
19.01.2017 11:00:00 0,7 -4,0 1,0 4,8 9,6 8 4 16 8 OZO 1027,8 13 0 0,0
19.01.2017 10:00:00 -0,3 -4,2 -0,4 4,9 9,6 6 4 10 5 ZZO 1027,6 13 0 0,0
19.01.2017 09:00:00 -1,0 -4,5 -0,9 4,9 9,6 6 3 9 5 OZO 1027,3 15 0 0,0
19.01.2017 08:00:00 -1,2 -4,7 -0,8 4,9 9,6 6 3 11 6 OZO 1027,2 15 0 0,0
19.01.2017 07:00:00 -1,2 -4,9 -1,1 5,0 9,7 6 3 9 5 ONO 1027,2 15 0 0,0
19.01.2017 06:00:00 -1,3 -5,0 -1,0 5,0 9,7 5 3 9 5 ZO 1027,2 15 0 0,0
19.01.2017 05:00:00 -1,4 -5,1 -1,2 5,0 9,7 5 3 10 5 OZO 1027,7 16 0 0,0
19.01.2017 04:00:00 -1,2 -5,2 -0,8 5,1 9,7 8 4 16 9 O 1027,8 17 0 0,0
19.01.2017 03:00:00 -0,9 -5,9 -0,6 5,1 9,7 9 5 14 8 O 1028,1 18 0 0,0
19.01.2017 02:00:00 -0,9 -5,5 -0,6 5,1 9,7 8 5 14 7 ONO 1028,0 18 0 0,0
19.01.2017 01:00:00 -0,7 -5,7 -0,4 5,2 9,7 6 4 11 6 NO 1028,1 18 0 0,0
19.01.2017 00:00:00 -0,7 -5,1 -0,5 5,2 9,8 7 4 10 6 ONO 1028,2 17 0 0,0
18.01.2017 23:00:00 -0,7 -5,5 -0,4 5,2 9,8 6 3 11 6 NNO 1028,0 17 0 0,0
18.01.2017 22:00:00 -0,7 -5,1 -0,4 5,3 9,8 7 4 13 7 ONO 1028,3 17 0 0,0
18.01.2017 21:00:00 -0,7 -5,1 -0,4 5,3 9,8 8 5 17 9 O 1028,4 20 0 0,0
18.01.2017 20:00:00 -0,6 -5,6 -0,3 5,4 9,8 13 7 17 9 ONO 1028,2 22 0 0,0
18.01.2017 19:00:00 -0,5 -5,7 -0,3 5,4 9,8 6 3 10 5 OZO 1027,9 26 0 0,0
18.01.2017 18:00:00 -0,5 -6,1 -0,1 5,4 9,8 9 5 13 7 O 1027,5 31 0 0,0
18.01.2017 17:00:00 -0,5 -5,7 0,1 5,4 9,9 7 4 13 7 O 1027,5 29 0 0,0
18.01.2017 16:00:00 -0,1 -4,7 0,7 5,3 9,9 8 4 14 8 O 1027,2 22 0 0,0
18.01.2017 15:00:00 -0,4 -4,8 0,8 5,3 9,9 7 4 10 6 O 1027,1 18 0 0,0
18.01.2017 14:00:00 -0,9 -5,1 -0,2 5,3 9,9 4 2 8 4 ZZO 1027,2 17 0 0,0
18.01.2017 13:00:00 -1,7 -5,0 -1,2 5,3 9,9 5 3 10 5 ZZO 1027,6 15 0 0,0
18.01.2017 12:00:00 -2,3 -5,6 -1,8 5,4 9,9 6 3 12 6 O 1028,5 16 0 0,0
18.01.2017 11:00:00 -2,7 -6,0 -2,1 5,5 9,9 9 5 14 7 O 1028,7 19 0 0,0
18.01.2017 10:00:00 -2,8 -6,4 -2,3 5,5 9,9 8 5 12 7 O 1028,7 21 0 0,0
18.01.2017 09:00:00 -2,8 -6,4 -2,7 5,6 9,9 7 4 12 7 O 1028,5 19 0 0,0
18.01.2017 08:00:00 -2,8 -7,0 -2,7 5,7 9,9 6 3 18 10 ONO 1028,2 21 0 0,0
18.01.2017 07:00:00 -2,8 -6,8 -2,5 5,9 10,0 8 5 15 8 ONO 1027,9 21 0 0,0
18.01.2017 06:00:00 -2,6 -6,4 -3,2 6,0 10,0 10 5 16 9 ONO 1028,0 20 0 0,0
18.01.2017 05:00:00 -2,6 -6,2 -3,9 6,2 10,0 7 4 15 8 NO 1028,0 19 0 0,0
18.01.2017 04:00:00 -2,3 -6,3 -3,5 6,3 10,0 7 4 14 7 NO 1028,2 23 0 0,0
18.01.2017 03:00:00 -1,9 -5,9 -4,2 6,5 10,0 7 4 16 8 NO 1028,4 25 0 0,0
18.01.2017 02:00:00 -1,7 -6,5 -4,3 6,6 10,0 5 3 12 7 NO 1028,4 27 0 0,0
18.01.2017 01:00:00 -1,3 -6,3 -3,9 6,8 10,0 7 4 16 9 NO 1028,8 30 0 0,0
18.01.2017 00:00:00 -1,5 -6,6 -4,8 6,9 10,0 10 5 15 8 ONO 1029,0 33 0 0,0
17.01.2017 23:00:00 -0,4 -6,6 -3,4 7,1 10,0 5 3 14 8 NO 1029,2 36 0 0,0
17.01.2017 22:00:00 0,1 -6,8 -1,7 7,2 10,0 9 5 19 10 NO 1029,3 40 0 0,0
17.01.2017 21:00:00 0,8 -6,3 -1,8 7,4 10,0 8 5 17 9 NO 1029,2 43 0 0,0
17.01.2017 20:00:00 1,7 -6,4 0,4 7,5 10,0 11 6 23 12 NO 1028,8 40 0 0,0
17.01.2017 19:00:00 3,0 -7,0 1,7 7,6 10,0 16 8 27 15 NNO 1028,2 56 0 0,0
17.01.2017 18:00:00 3,8 -7,1 2,3 7,7 10,0 9 5 24 13 NO 1028,0 59 33 0,0
17.01.2017 17:00:00 4,9 -5,5 7,2 7,7 10,0 13 7 26 14 N 1027,9 44 60 0,0
17.01.2017 16:00:00 5,0 -4,8 8,7 7,7 10,0 10 5 21 11 NNW 1028,1 34 60 0,0
17.01.2017 15:00:00 3,8 -3,5 8,4 7,6 10,0 12 7 20 11 NNW 1028,4 36 60 0,0
17.01.2017 14:00:00 3,6 -2,6 8,9 7,6 10,0 9 5 18 10 N 1028,8 20 60 0,0
17.01.2017 13:00:00 3,4 -4,3 7,4 7,6 10,0 5 3 13 7 NO 1029,5 40 60 0,0
17.01.2017 12:00:00 2,4 -2,5 5,5 7,7 10,0 8 5 18 10 NO 1030,1 32 58 0,0
17.01.2017 11:00:00 1,5 -2,1 3,7 7,8 10,0 6 3 16 8 O 1030,1 27 60 0,0
17.01.2017 10:00:00 0,5 -2,4 0,7 8,0 10,0 8 5 13 7 O 1029,6 22 60 0,0
17.01.2017 09:00:00 -0,4 -2,1 -1,7 8,2 10,0 6 4 16 9 ONO 1029,0 22 1 0,0
17.01.2017 08:00:00 -0,4 -2,3 -0,9 8,4 10,0 11 6 19 10 ONO 1028,3 30 0 0,0
17.01.2017 07:00:00 0,4 -2,0 -0,2 8,6 10,0 11 6 26 14 ONO 1027,7 38 0 0,0
17.01.2017 06:00:00 1,2 -1,2 0,3 8,7 10,0 12 6 26 14 NO 1027,5 40 0 0,0
17.01.2017 05:00:00 2,2 0,1 1,2 8,8 9,9 13 7 23 12 NO 1027,2 16 0 0,0
17.01.2017 04:00:00 3,3 0,5 2,0 8,9 9,9 16 9 29 15 ONO 1026,9 10 0 0,0
17.01.2017 03:00:00 4,7 2,6 4,3 9,0 9,9 16 9 26 14 NO 1026,5 40 0 0,0
17.01.2017 02:00:00 5,0 3,7 4,9 9,1 9,9 6 3 35 19 O 1026,0 20 0 0,0
17.01.2017 01:00:00 5,8 3,1 4,8 9,1 9,9 10 6 29 16 O 1026,1 17 0 0,2
17.01.2017 00:00:00 6,2 5,0 6,2 9,1 9,9 9 5 18 10 O 1025,7 14 0 0,2
16.01.2017 23:00:00 7,1 5,2 6,9 9,2 9,9 15 8 25 13 ONO 1025,6 4,3 0 0,2
16.01.2017 22:00:00 8,0 6,5 7,9 9,2 9,9 10 5 15 8 NO 1025,3 18 0 0,8
16.01.2017 21:00:00 8,5 6,8 8,2 9,2 9,9 7 4 14 7 NO 1025,2 11 0 0,2
16.01.2017 20:00:00 8,9 7,0 8,5 9,2 9,9 8 5 16 9 NNO 1025,1 11 0 0,6
16.01.2017 19:00:00 9,7 6,8 9,3 9,2 9,9 9 5 21 11 NNO 1025,1 26 0 0,0
16.01.2017 18:00:00 9,8 7,9 9,4 9,2 9,9 10 5 23 13 N 1025,0 20 0 0,4
16.01.2017 17:00:00 10,1 8,7 10,0 9,1 9,9 11 6 34 19 N 1024,9 14 0 0,2
16.01.2017 16:00:00 10,1 8,5 10,5 9,0 9,9 18 10 37 20 N 1025,1 13 0 0,0
16.01.2017 15:00:00 10,7 8,5 10,8 8,9 9,9 13 7 23 13 NNW 1025,1 18 0 0,4
16.01.2017 14:00:00 10,6 9,2 10,1 8,8 9,9 9 5 22 12 N 1025,4 14 0 0,2
16.01.2017 13:00:00 10,8 9,4 10,6 8,7 9,9 11 6 16 9 N 1025,9 18 0 0,0
16.01.2017 12:00:00 10,0 9,2 10,2 8,7 9,9 9 5 31 17 N 1026,5 10 0 1,2
16.01.2017 11:00:00 10,3 9,8 10,1 8,7 9,9 16 9 40 22 N 1026,5 10 0 2,2
16.01.2017 10:00:00 10,1 9,5 10,0 8,6 9,9 23 12 40 22 NW 1026,0 3,4 0 3,1
16.01.2017 09:00:00 10,2 9,4 9,9 8,5 9,9 22 12 45 24 NNW 1025,7 10 0 0,4
16.01.2017 08:00:00 10,6 9,0 10,0 8,5 9,9 22 12 48 26 NNW 1025,3 16 0 0,4
16.01.2017 07:00:00 10,1 9,2 10,0 8,4 9,9 26 14 55 30 NNW 1024,8 5 0 0,8
16.01.2017 06:00:00 10,4 9,3 10,2 8,3 9,9 29 16 57 31 N 1024,6 2,4 0 0,8
16.01.2017 05:00:00 10,6 9,2 9,9 8,3 9,9 31 17 56 31 NNW 1024,7 12 0 0,6
16.01.2017 04:00:00 10,7 9,0 9,9 8,2 9,9 29 16 56 30 NNW 1025,0 17 0 0,6
16.01.2017 03:00:00 10,5 8,8 9,7 8,1 9,9 29 16 62 34 NW 1025,3 3,6 0 0,8
16.01.2017 02:00:00 10,9 8,1 9,5 8,1 9,9 32 18 53 29 NW 1025,6 18 0 0,0
16.01.2017 01:00:00 9,9 8,7 9,4 8,0 9,9 28 15 54 29 NNW 1026,4 3,6 0 0,6
16.01.2017 00:00:00 10,2 7,8 9,1 8,0 9,9 28 15 58 31 NW 1026,7 17 0 0,0
15.01.2017 23:00:00 9,4 8,2 9,0 8,0 9,9 28 15 50 27 NNW 1027,1 6 0 3,0
15.01.2017 22:00:00 10,0 7,4 8,4 7,9 9,9 26 14 54 29 NW 1027,4 16 0 0,0
15.01.2017 21:00:00 9,1 8,0 8,1 7,9 9,9 12 6 27 15 NW 1027,8 12 0 2,2
15.01.2017 20:00:00 8,6 8,0 7,8 7,9 9,9 12 6 28 15 NW 1028,3 3,1 0 2,2
15.01.2017 19:00:00 8,0 7,1 7,8 7,8 9,9 10 5 23 12 NNO 1028,6 3,9 0 2,0
15.01.2017 18:00:00 7,5 6,9 7,5 7,8 9,9 6 3 9 5 WZW 1028,7 5 0 0,4
15.01.2017 17:00:00 7,5 6,6 7,6 7,8 9,9 2 1 9 5 WNW 1029,0 7 0 3,2
15.01.2017 16:00:00 7,4 6,7 7,6 7,7 9,9 6 3 16 9 WNW 1028,8 4,8 0 2,1
15.01.2017 15:00:00 7,2 6,5 7,5 7,7 9,9 4 2 12 7 ZW 1029,0 11 0 1,8
15.01.2017 14:00:00 7,1 6,2 7,5 7,6 9,9 5 3 9 5 ZW 1029,4 5 0 1,4
15.01.2017 13:00:00 6,9 5,8 7,0 7,6 9,9 4 2 12 7 ZW 1029,7 16 0 0,8
15.01.2017 12:00:00 7,1 5,9 7,0 7,6 10,0 4 2 7 4 ZW 1030,4 28 0 0,0
15.01.2017 11:00:00 6,8 5,7 6,9 7,5 10,0 5 3 9 5 ZO 1030,1 17 0 0,0

tt = temperatuur
td = dauwpunt
tt 5cm = temperatuur 5cm
tt -20cm = temperatuur -20cm
tt -100cm = temperatuur -100cm
ff = windsnelheid
fx = windstoten
dd = windrichting
ppp = luchtdruk
vv = zicht
sd = Zonneschijnduur
rr = neerslag

Weerstations in de omgeving